Location: Beemte
(52.2555°N, 5.9895°E)
Time: 11:23:06
(UTC+00:00)

DNEPR-1 R/B - Pass Details

Date: 15 May 2026
Orbit: 580 x 1333 km, 64.6° (Epoch: 5 June)

Event Time Altitude Azimuth Distance (km) Brightness Sun altitude
Rises 20:21:04 0° 316° (NW) 3,149 9.9 -7.5°
Reaches altitude 10° 20:23:15 10° 316° (NW) 2,314 8.3 -7.7°
Maximum altitude 20:28:36 89° 49° (NE) 888 4.3 -8.3°
Enters shadow 20:34:58 11° 138° (SE) 2,744 6.2 -9.0°
